Location: Unspecified
(0.0000°N, 0.0000°E)
Time: 11:30:48
(UTC+00:00)

Vanguard 3 - Pass Details

Date: 21 November 2019
Orbit: 508 x 3263 km, 33.3° (Epoch: 07 December)

Event Time Altitude Azimuth Distance (km) Brightness Sun altitude
Rises 21:12:02 0° 307° (NW) 5,509 11.6 -47.4°
Reaches altitude 10° 21:16:24 10° 309° (NW) 4,044 10.8 -48.3°
Enters shadow 21:18:27 16° 309° (NW) 3,331 10.3 -48.7°
Maximum altitude 21:26:07 79° 34° (NE) 1,103 - -50.4°
Drops below altitude 10° 21:31:33 10° 121° (ESE) 2,328 - -51.5°
Sets 21:33:28 0° 122° (ESE) 3,064 - -51.9°
